| time (UTC) | temp C | wind direction | speed KPH | gust KPH | rain 1hr cm | rain 24hr cm | rain mn cm | humidity % | barometer mb |
| 20260508214001 | 18 | 0 | 0.0 | 0.0 | 0.00 | 0.18 | 0.00 | 45 | 1021.1 |
| 20260508213501 | 18 | 0 | 0.0 | 0.0 | 0.00 | 0.18 | 0.00 | 46 | 1021.1 |
| 20260508213023 | 18 | 0 | 0.0 | 0.0 | 0.00 | 0.18 | 0.00 | 46 | 1021.0 |
| 20260508212501 | 18 | 0 | 0.0 | 0.0 | 0.00 | 0.18 | 0.00 | 49 | 1020.9 |
| 20260508212022 | 17 | 0 | 0.0 | 0.0 | 0.00 | 0.18 | 0.00 | 48 | 1020.7 |
| 20260508211522 | 17 | 0 | 0.0 | 0.0 | 0.00 | 0.18 | 0.00 | 46 | 1020.9 |
| 20260508211001 | 17 | 0 | 0.0 | 0.0 | 0.00 | 0.18 | 0.00 | 47 | 1020.7 |
| 20260508210522 | 17 | 0 | 0.0 | 0.0 | 0.00 | 0.18 | 0.00 | 46 | 1020.7 |
| 20260508210001 | 17 | 0 | 0.0 | 0.0 | 0.00 | 0.18 | 0.00 | 47 | 1020.6 |
| 20260508205501 | 17 | 0 | 0.0 | 0.0 | 0.00 | 0.18 | 0.00 | 45 | 1020.7 |
| 20260508205022 | 16 | 0 | 0.0 | 0.0 | 0.00 | 0.18 | 0.00 | 47 | 1020.7 |
| 20260508204501 | 16 | 0 | 0.0 | 0.0 | 0.00 | 0.18 | 0.00 | 51 | 1020.3 |
| 20260508204022 | 16 | 0 | 0.0 | 0.0 | 0.00 | 0.18 | 0.00 | 50 | 1020.4 |
| 20260508203502 | 15 | 0 | 0.0 | 0.0 | 0.00 | 0.18 | 0.00 | 48 | 1020.6 |
| 20260508203002 | 15 | 0 | 0.0 | 0.0 | 0.00 | 0.18 | 0.00 | 52 | 1020.4 |
| 20260508202501 | 15 | 0 | 0.0 | 0.0 | 0.00 | 0.18 | 0.00 | 49 | 1020.2 |
| 20260508202001 | 15 | 0 | 0.0 | 0.0 | 0.00 | 0.18 | 0.00 | 51 | 1020.4 |
| 20260508201501 | 15 | 0 | 0.0 | 0.0 | 0.00 | 0.18 | 0.00 | 51 | 1020.3 |
| 20260508201001 | 15 | 0 | 0.0 | 0.0 | 0.00 | 0.18 | 0.00 | 50 | 1020.2 |
| 20260508200501 | 15 | 0 | 0.0 | 0.0 | 0.00 | 0.18 | 0.00 | 50 | 1020.2 |
| 20260508200001 | 15 | 0 | 0.0 | 0.0 | 0.00 | 0.18 | 0.00 | 50 | 1020.1 |
| 20260508195501 | 15 | 0 | 0.0 | 0.0 | 0.00 | 0.18 | 0.00 | 49 | 1020.1 |
| 20260508195001 | 15 | 0 | 0.0 | 0.0 | 0.00 | 0.18 | 0.00 | 48 | 1019.9 |
| 20260508194501 | 15 | 0 | 0.0 | 0.0 | 0.00 | 0.18 | 0.00 | 50 | 1020.0 |
| 20260508194002 | 15 | 0 | 0.0 | 0.0 | 0.00 | 0.18 | 0.00 | 49 | 1019.7 |
| 20260508193523 | 15 | 0 | 0.0 | 0.0 | 0.00 | 0.18 | 0.00 | 48 | 1019.5 |
| 20260508193002 | 14 | 0 | 0.0 | 0.0 | 0.00 | 0.18 | 0.00 | 49 | 1019.7 |
| 20260508192501 | 14 | 0 | 0.0 | 0.0 | 0.00 | 0.18 | 0.00 | 50 | 1019.6 |
| 20260508192001 | 14 | 0 | 0.0 | 0.0 | 0.00 | 0.18 | 0.00 | 52 | 1019.5 |
| 20260508191501 | 15 | 0 | 0.0 | 0.0 | 0.00 | 0.18 | 0.00 | 46 | 1019.5 |
| 20260508191001 | 15 | 0 | 0.0 | 0.0 | 0.00 | 0.18 | 0.00 | 47 | 1019.6 |
| 20260508190501 | 15 | 0 | 0.0 | 0.0 | 0.00 | 0.18 | 0.00 | 49 | 1019.4 |
| 20260508190002 | 15 | 0 | 0.0 | 0.0 | 0.00 | 0.18 | 0.00 | 47 | 1019.3 |
| 20260508185501 | 14 | 0 | 0.0 | 0.0 | 0.00 | 0.18 | 0.00 | 47 | 1019.2 |
| 20260508185001 | 13 | 0 | 0.0 | 0.0 | 0.00 | 0.18 | 0.00 | 50 | 1018.9 |
| 20260508184501 | 13 | 0 | 0.0 | 0.0 | 0.00 | 0.18 | 0.00 | 53 | 1019.1 |
| 20260508184001 | 13 | 0 | 0.0 | 0.0 | 0.00 | 0.18 | 0.00 | 53 | 1019.1 |
| 20260508183501 | 13 | 0 | 0.0 | 0.0 | 0.00 | 0.18 | 0.00 | 53 | 1019.1 |
| 20260508183002 | 13 | 0 | 0.0 | 0.0 | 0.00 | 0.18 | 0.00 | 53 | 1018.9 |
| 20260508182501 | 14 | 0 | 0.0 | 0.0 | 0.00 | 0.18 | 0.00 | 52 | 1019.2 |
| 20260508182001 | 13 | 0 | 0.0 | 0.0 | 0.00 | 0.18 | 0.00 | 52 | 1019.0 |
| 20260508181501 | 13 | 0 | 0.0 | 0.0 | 0.00 | 0.18 | 0.00 | 54 | 1019.0 |
| 20260508181001 | 15 | 0 | 0.0 | 0.0 | 0.00 | 0.18 | 0.00 | 48 | 1018.9 |
| 20260508180501 | 16 | 0 | 0.0 | 0.0 | 0.00 | 0.18 | 0.00 | 40 | 1018.8 |
| 20260508180022 | 16 | 0 | 0.0 | 0.0 | 0.00 | 0.18 | 0.00 | 42 | 1018.9 |
| 20260508175501 | 16 | 0 | 0.0 | 0.0 | 0.00 | 0.18 | 0.00 | 40 | 1018.8 |
| 20260508175002 | 15 | 0 | 0.0 | 0.0 | 0.00 | 0.18 | 0.00 | 45 | 1018.9 |
| 20260508174502 | 15 | 0 | 0.0 | 0.0 | 0.00 | 0.18 | 0.00 | 43 | 1018.8 |
| 20260508174002 | 15 | 0 | 0.0 | 0.0 | 0.00 | 0.18 | 0.00 | 44 | 1019.0 |
| 20260508173502 | 15 | 0 | 0.0 | 0.0 | 0.00 | 0.18 | 0.00 | 44 | 1018.8 |
| 20260508173002 | 15 | 0 | 0.0 | 0.0 | 0.00 | 0.18 | 0.00 | 44 | 1019.0 |
| 20260508172522 | 15 | 0 | 0.0 | 0.0 | 0.00 | 0.18 | 0.00 | 45 | 1019.0 |
| 20260508172002 | 15 | 0 | 0.0 | 0.0 | 0.00 | 0.18 | 0.00 | 43 | 1018.9 |
| 20260508171502 | 14 | 0 | 0.0 | 0.0 | 0.00 | 0.18 | 0.00 | 45 | 1019.1 |
| 20260508171023 | 15 | 0 | 0.0 | 0.0 | 0.00 | 0.18 | 0.00 | 46 | 1019.1 |
| 20260508170501 | 15 | 0 | 0.0 | 0.0 | 0.00 | 0.18 | 0.00 | 42 | 1019.1 |
| 20260508170002 | 15 | 0 | 0.0 | 0.0 | 0.00 | 0.18 | 0.00 | 42 | 1019.1 |
| 20260508165502 | 15 | 0 | 0.0 | 0.0 | 0.00 | 0.18 | 0.00 | 43 | 1019.2 |
| 20260508165002 | 15 | 0 | 0.0 | 0.0 | 0.00 | 0.18 | 0.00 | 46 | 1019.1 |
| 20260508164502 | 15 | 0 | 0.0 | 0.0 | 0.00 | 0.18 | 0.00 | 41 | 1019.1 |
| 20260508164001 | 15 | 0 | 0.0 | 0.0 | 0.00 | 0.18 | 0.00 | 41 | 1019.0 |
| 20260508163502 | 15 | 0 | 0.0 | 0.0 | 0.00 | 0.18 | 0.00 | 41 | 1019.1 |
| 20260508163003 | 15 | 0 | 0.0 | 0.0 | 0.00 | 0.18 | 0.00 | 42 | 1019.0 |
| 20260508162502 | 15 | 0 | 0.0 | 0.0 | 0.00 | 0.18 | 0.00 | 44 | 1019.0 |
| 20260508162002 | 15 | 0 | 0.0 | 0.0 | 0.00 | 0.18 | 0.00 | 43 | 1019.2 |
| 20260508161502 | 15 | 0 | 0.0 | 0.0 | 0.00 | 0.18 | 0.00 | 41 | 1019.0 |
| 20260508161002 | 15 | 0 | 0.0 | 0.0 | 0.00 | 0.18 | 0.00 | 41 | 1019.1 |
| 20260508160502 | 15 | 0 | 0.0 | 0.0 | 0.00 | 0.18 | 0.00 | 41 | 1019.3 |
| 20260508160002 | 15 | 0 | 0.0 | 0.0 | 0.00 | 0.18 | 0.00 | 42 | 1019.4 |
| 20260508155502 | 16 | 0 | 0.0 | 0.0 | 0.00 | 0.18 | 0.00 | 42 | 1019.2 |
| 20260508155002 | 16 | 0 | 0.0 | 0.0 | 0.00 | 0.18 | 0.00 | 40 | 1019.5 |
| 20260508154502 | 15 | 0 | 0.0 | 0.0 | 0.00 | 0.18 | 0.00 | 43 | 1019.4 |
| 20260508154002 | 16 | 0 | 0.0 | 0.0 | 0.00 | 0.18 | 0.00 | 40 | 1019.3 |
| 20260508153502 | 16 | 0 | 0.0 | 0.0 | 0.00 | 0.18 | 0.00 | 42 | 1019.3 |
| 20260508153003 | 16 | 0 | 0.0 | 0.0 | 0.00 | 0.18 | 0.00 | 41 | 1019.5 |
| 20260508152502 | 16 | 0 | 0.0 | 0.0 | 0.00 | 0.18 | 0.00 | 40 | 1019.5 |
| 20260508152023 | 16 | 0 | 0.0 | 0.0 | 0.00 | 0.18 | 0.00 | 41 | 1019.5 |
| 20260508151523 | 16 | 0 | 0.0 | 0.0 | 0.00 | 0.18 | 0.00 | 40 | 1019.5 |
| 20260508151002 | 16 | 0 | 0.0 | 0.0 | 0.00 | 0.23 | 0.00 | 40 | 1019.5 |
| 20260508150502 | 16 | 0 | 0.0 | 0.0 | 0.00 | 0.23 | 0.00 | 39 | 1019.6 |
| 20260508150002 | 16 | 0 | 0.0 | 0.0 | 0.00 | 0.23 | 0.00 | 39 | 1019.5 |
| 20260508145502 | 16 | 0 | 0.0 | 0.0 | 0.00 | 0.23 | 0.00 | 38 | 1019.6 |
| 20260508145023 | 16 | 0 | 0.0 | 0.0 | 0.00 | 0.23 | 0.00 | 39 | 1019.6 |
| 20260508144502 | 16 | 0 | 0.0 | 0.0 | 0.00 | 0.23 | 0.00 | 38 | 1019.7 |
| 20260508144023 | 16 | 0 | 0.0 | 0.0 | 0.00 | 0.23 | 0.00 | 38 | 1019.6 |
| 20260508143502 | 16 | 0 | 0.0 | 0.0 | 0.00 | 0.23 | 0.00 | 38 | 1019.7 |
| 20260508143002 | 16 | 0 | 0.0 | 0.0 | 0.00 | 0.23 | 0.00 | 40 | 1019.6 |
| 20260508142502 | 16 | 0 | 0.0 | 0.0 | 0.00 | 0.23 | 0.00 | 40 | 1019.7 |
| 20260508142023 | 16 | 0 | 0.0 | 0.0 | 0.00 | 0.23 | 0.00 | 39 | 1019.7 |
| 20260508141502 | 17 | 0 | 0.0 | 0.0 | 0.00 | 0.23 | 0.00 | 37 | 1019.8 |
| 20260508141002 | 17 | 0 | 0.0 | 0.0 | 0.00 | 0.23 | 0.00 | 37 | 1019.7 |
| 20260508140502 | 17 | 0 | 0.0 | 0.0 | 0.00 | 0.23 | 0.00 | 39 | 1019.8 |
| 20260508140002 | 17 | 0 | 0.0 | 0.0 | 0.00 | 0.23 | 0.00 | 38 | 1019.8 |
| 20260508135502 | 17 | 0 | 0.0 | 0.0 | 0.00 | 0.23 | 0.23 | 36 | 1020.2 |
| 20260508135002 | 17 | 0 | 0.0 | 0.0 | 0.00 | 0.23 | 0.23 | 36 | 1020.1 |
| 20260508134502 | 17 | 0 | 0.0 | 0.0 | 0.00 | 0.23 | 0.23 | 38 | 1019.8 |
| 20260508134023 | 17 | 0 | 0.0 | 0.0 | 0.00 | 0.23 | 0.23 | 38 | 1019.8 |
| 20260508133502 | 17 | 0 | 0.0 | 0.0 | 0.00 | 0.23 | 0.23 | 38 | 1020.2 |
| 20260508133003 | 17 | 0 | 0.0 | 0.0 | 0.00 | 0.23 | 0.23 | 38 | 1020.0 |
| 20260508132502 | 17 | 0 | 0.0 | 0.0 | 0.00 | 0.23 | 0.23 | 39 | 1019.9 |
| 20260508132002 | 16 | 0 | 0.0 | 0.0 | 0.00 | 0.23 | 0.23 | 38 | 1020.0 |
| 20260508131523 | 16 | 0 | 0.0 | 0.0 | 0.00 | 0.23 | 0.23 | 40 | 1020.0 |
| 20260508131002 | 16 | 0 | 0.0 | 0.0 | 0.00 | 0.23 | 0.23 | 43 | 1020.0 |
| 20260508130502 | 16 | 0 | 0.0 | 0.0 | 0.00 | 0.23 | 0.23 | 46 | 1020.1 |
| 20260508130002 | 17 | 0 | 0.0 | 0.0 | 0.00 | 0.23 | 0.23 | 37 | 1019.9 |
| 20260508125502 | 17 | 0 | 0.0 | 0.0 | 0.00 | 0.23 | 0.23 | 37 | 1019.9 |
| 20260508125002 | 17 | 0 | 0.0 | 0.0 | 0.00 | 0.23 | 0.23 | 37 | 1019.9 |
| 20260508124502 | 18 | 0 | 0.0 | 0.0 | 0.00 | 0.23 | 0.23 | 36 | 1020.0 |
| 20260508124002 | 18 | 0 | 0.0 | 0.0 | 0.00 | 0.23 | 0.23 | 36 | 1020.1 |
| 20260508123502 | 18 | 0 | 0.0 | 0.0 | 0.00 | 0.23 | 0.23 | 35 | 1019.9 |
| 20260508123003 | 18 | 0 | 0.0 | 0.0 | 0.00 | 0.23 | 0.23 | 34 | 1019.8 |
| 20260508122502 | 18 | 0 | 0.0 | 0.0 | 0.00 | 0.23 | 0.23 | 37 | 1019.9 |
| 20260508122002 | 18 | 0 | 0.0 | 0.0 | 0.00 | 0.23 | 0.23 | 35 | 1019.9 |
| 20260508121523 | 18 | 0 | 0.0 | 0.0 | 0.00 | 0.23 | 0.23 | 35 | 1020.0 |
| 20260508121002 | 18 | 0 | 0.0 | 0.0 | 0.00 | 0.23 | 0.23 | 37 | 1019.9 |
| 20260508120502 | 18 | 0 | 0.0 | 0.0 | 0.00 | 0.23 | 0.23 | 36 | 1019.9 |
| 20260508120002 | 18 | 0 | 0.0 | 0.0 | 0.00 | 0.23 | 0.23 | 37 | 1019.9 |
| 20260508115523 | 18 | 0 | 0.0 | 0.0 | 0.00 | 0.23 | 0.23 | 36 | 1020.0 |
| 20260508115002 | 18 | 0 | 0.0 | 0.0 | 0.00 | 0.23 | 0.23 | 37 | 1020.1 |
| 20260508114502 | 18 | 0 | 0.0 | 0.0 | 0.00 | 0.23 | 0.23 | 37 | 1020.0 |
| 20260508114002 | 19 | 0 | 0.0 | 0.0 | 0.00 | 0.23 | 0.23 | 37 | 1020.2 |
| 20260508113502 | 19 | 0 | 0.0 | 0.0 | 0.00 | 0.23 | 0.23 | 37 | 1020.0 |
| 20260508113004 | 19 | 0 | 0.0 | 0.0 | 0.00 | 0.23 | 0.23 | 37 | 1020.2 |
| 20260508112502 | 19 | 0 | 0.0 | 0.0 | 0.00 | 0.23 | 0.23 | 38 | 1020.3 |
| 20260508112023 | 20 | 0 | 0.0 | 0.0 | 0.00 | 0.23 | 0.23 | 36 | 1020.4 |
| 20260508111502 | 20 | 0 | 0.0 | 0.0 | 0.00 | 0.23 | 0.23 | 39 | 1020.4 |
| 20260508111002 | 19 | 0 | 0.0 | 0.0 | 0.00 | 0.23 | 0.23 | 41 | 1020.4 |
| 20260508110502 | 18 | 0 | 0.0 | 0.0 | 0.00 | 0.23 | 0.23 | 42 | 1020.5 |
| 20260508110002 | 18 | 0 | 0.0 | 0.0 | 0.00 | 0.23 | 0.23 | 44 | 1020.3 |
| 20260508105502 | 18 | 0 | 0.0 | 0.0 | 0.00 | 0.23 | 0.23 | 43 | 1020.0 |
| 20260508105002 | 18 | 0 | 0.0 | 0.0 | 0.00 | 0.23 | 0.23 | 46 | 1019.9 |
| 20260508104502 | 18 | 0 | 0.0 | 0.0 | 0.00 | 0.23 | 0.23 | 46 | 1020.1 |
| 20260508104002 | 18 | 0 | 0.0 | 0.0 | 0.00 | 0.23 | 0.23 | 46 | 1020.1 |
| 20260508103502 | 19 | 0 | 0.0 | 0.0 | 0.00 | 0.23 | 0.23 | 43 | 1020.1 |
| 20260508103004 | 19 | 0 | 0.0 | 0.0 | 0.00 | 0.23 | 0.23 | 42 | 1020.0 |
| 20260508102502 | 19 | 0 | 0.0 | 0.0 | 0.00 | 0.23 | 0.23 | 41 | 1019.8 |
| 20260508102002 | 19 | 0 | 0.0 | 0.0 | 0.00 | 0.23 | 0.23 | 42 | 1019.9 |
| 20260508101502 | 19 | 0 | 0.0 | 0.0 | 0.00 | 0.23 | 0.23 | 44 | 1019.7 |
| 20260508101002 | 19 | 0 | 0.0 | 0.0 | 0.00 | 0.23 | 0.23 | 42 | 1019.6 |
| 20260508100502 | 20 | 0 | 0.0 | 0.0 | 0.00 | 0.23 | 0.23 | 42 | 1019.5 |
| 20260508100024 | 19 | 0 | 0.0 | 0.0 | 0.00 | 0.23 | 0.23 | 43 | 1019.8 |
| 20260508095502 | 19 | 0 | 0.0 | 0.0 | 0.00 | 0.23 | 0.23 | 42 | 1019.5 |
| 20260508095024 | 19 | 0 | 0.0 | 0.0 | 0.00 | 0.23 | 0.23 | 43 | 1019.8 |
| 20260508094502 | 20 | 0 | 0.0 | 0.0 | 0.00 | 0.23 | 0.23 | 42 | 1019.3 |
| 20260508094003 | 20 | 0 | 0.0 | 0.0 | 0.00 | 0.23 | 0.23 | 40 | 1019.4 |
| 20260508093503 | 20 | 0 | 0.0 | 0.0 | 0.00 | 0.23 | 0.23 | 41 | 1019.5 |
| 20260508093003 | 20 | 0 | 0.0 | 0.0 | 0.00 | 0.23 | 0.23 | 43 | 1019.2 |
| 20260508092524 | 20 | 0 | 0.0 | 0.0 | 0.00 | 0.23 | 0.23 | 44 | 1019.2 |
| 20260508092003 | 20 | 0 | 0.0 | 0.0 | 0.00 | 0.23 | 0.23 | 43 | 1019.1 |
| 20260508091502 | 20 | 0 | 0.0 | 0.0 | 0.00 | 0.23 | 0.23 | 43 | 1019.2 |
| 20260508091023 | 20 | 0 | 0.0 | 0.0 | 0.00 | 0.23 | 0.23 | 43 | 1019.0 |
| 20260508090502 | 19 | 0 | 0.0 | 0.0 | 0.10 | 0.23 | 0.23 | 47 | 1019.3 |
| 20260508090024 | 20 | 0 | 0.0 | 0.0 | 0.18 | 0.23 | 0.23 | 46 | 1019.1 |
| 20260508085503 | 20 | 0 | 0.0 | 0.0 | 0.18 | 0.23 | 0.23 | 49 | 1018.8 |
| 20260508085002 | 20 | 0 | 0.0 | 0.0 | 0.18 | 0.23 | 0.23 | 47 | 1018.9 |
| 20260508084502 | 20 | 0 | 0.0 | 0.0 | 0.18 | 0.23 | 0.23 | 47 | 1018.8 |
| 20260508084003 | 20 | 0 | 0.0 | 0.0 | 0.18 | 0.23 | 0.23 | 45 | 1018.5 |
| 20260508083503 | 20 | 0 | 0.0 | 0.0 | 0.18 | 0.23 | 0.23 | 46 | 1018.5 |
| 20260508083003 | 20 | 0 | 0.0 | 0.0 | 0.18 | 0.23 | 0.23 | 48 | 1018.4 |
| 20260508082503 | 20 | 0 | 0.0 | 0.0 | 0.18 | 0.23 | 0.23 | 46 | 1018.4 |
| 20260508082003 | 20 | 0 | 0.0 | 0.0 | 0.18 | 0.23 | 0.23 | 45 | 1018.4 |
| 20260508081503 | 20 | 0 | 0.0 | 0.0 | 0.18 | 0.23 | 0.23 | 47 | 1018.3 |
| 20260508081003 | 20 | 0 | 0.0 | 0.0 | 0.18 | 0.23 | 0.23 | 51 | 1018.2 |
| 20260508080503 | 20 | 0 | 0.0 | 0.0 | 0.10 | 0.15 | 0.15 | 53 | 1018.1 |
| 20260508080003 | 20 | 0 | 0.0 | 0.0 | 0.00 | 0.10 | 0.05 | 48 | 1018.0 |
| 20260508075503 | 20 | 0 | 0.0 | 0.0 | 0.00 | 0.13 | 0.05 | 49 | 1018.0 |
| 20260508075003 | 21 | 0 | 0.0 | 0.0 | 0.00 | 0.13 | 0.05 | 48 | 1017.7 |
| 20260508074524 | 20 | 0 | 0.0 | 0.0 | 0.00 | 0.15 | 0.05 | 50 | 1017.8 |
| 20260508074003 | 20 | 0 | 0.0 | 0.0 | 0.00 | 0.15 | 0.05 | 53 | 1017.8 |
| 20260508073503 | 20 | 0 | 0.0 | 0.0 | 0.00 | 0.15 | 0.05 | 56 | 1017.6 |
| 20260508073004 | 21 | 0 | 0.0 | 0.0 | 0.00 | 0.15 | 0.05 | 54 | 1017.7 |
| 20260508072503 | 21 | 0 | 0.0 | 0.0 | 0.00 | 0.15 | 0.05 | 52 | 1017.6 |
| 20260508072024 | 22 | 0 | 0.0 | 0.0 | 0.00 | 0.15 | 0.05 | 50 | 1017.6 |
| 20260508071503 | 22 | 0 | 0.0 | 0.0 | 0.00 | 0.15 | 0.05 | 47 | 1017.5 |
| 20260508071003 | 22 | 0 | 0.0 | 0.0 | 0.00 | 0.15 | 0.05 | 50 | 1017.4 |
| 20260508070503 | 22 | 0 | 0.0 | 0.0 | 0.00 | 0.15 | 0.05 | 46 | 1017.6 |
| 20260508070003 | 22 | 0 | 0.0 | 0.0 | 0.00 | 0.15 | 0.05 | 46 | 1017.3 |
| 20260508065503 | 22 | 0 | 0.0 | 0.0 | 0.00 | 0.15 | 0.05 | 45 | 1017.5 |
| 20260508065024 | 23 | 0 | 0.0 | 0.0 | 0.00 | 0.15 | 0.05 | 45 | 1017.2 |
| 20260508064503 | 23 | 0 | 0.0 | 0.0 | 0.00 | 0.15 | 0.05 | 46 | 1017.3 |
| 20260508064024 | 23 | 0 | 0.0 | 0.0 | 0.00 | 0.15 | 0.05 | 47 | 1017.3 |
| 20260508063503 | 23 | 0 | 0.0 | 0.0 | 0.00 | 0.15 | 0.05 | 45 | 1017.2 |
| 20260508063004 | 23 | 90 | 0.0 | 3.2 | 0.00 | 0.15 | 0.05 | 45 | 1017.2 |
| 20260508062503 | 23 | 90 | 0.0 | 3.2 | 0.00 | 0.15 | 0.05 | 45 | 1017.0 |
| 20260508062003 | 23 | 0 | 0.0 | 0.0 | 0.00 | 0.15 | 0.05 | 45 | 1017.0 |
| 20260508061503 | 23 | 0 | 0.0 | 0.0 | 0.00 | 0.15 | 0.05 | 44 | 1016.8 |
| 20260508061024 | 24 | 0 | 0.0 | 0.0 | 0.00 | 0.15 | 0.05 | 44 | 1016.9 |
| 20260508060503 | 24 | 0 | 0.0 | 0.0 | 0.00 | 0.15 | 0.05 | 44 | 1017.0 |
| 20260508060003 | 24 | 0 | 0.0 | 0.0 | 0.00 | 0.15 | 0.05 | 44 | 1016.8 |
| 20260508055503 | 24 | 0 | 0.0 | 0.0 | 0.00 | 0.15 | 0.05 | 43 | 1016.4 |
| 20260508055003 | 25 | 0 | 0.0 | 0.0 | 0.00 | 0.15 | 0.05 | 44 | 1016.6 |
| 20260508054503 | 25 | 0 | 0.0 | 0.0 | 0.00 | 0.15 | 0.05 | 43 | 1016.7 |
| 20260508054004 | 25 | 0 | 0.0 | 0.0 | 0.00 | 0.15 | 0.05 | 43 | 1016.6 |
| 20260508053504 | 25 | 0 | 0.0 | 0.0 | 0.00 | 0.15 | 0.05 | 43 | 1016.5 |
| 20260508053003 | 25 | 0 | 0.0 | 0.0 | 0.00 | 0.15 | 0.05 | 42 | 1016.7 |
| 20260508052503 | 25 | 0 | 0.0 | 0.0 | 0.00 | 0.15 | 0.05 | 41 | 1016.4 |
| 20260508052024 | 25 | 0 | 0.0 | 0.0 | 0.00 | 0.15 | 0.05 | 43 | 1016.5 |
| 20260508051503 | 26 | 0 | 0.0 | 0.0 | 0.00 | 0.15 | 0.05 | 43 | 1016.3 |
| 20260508051003 | 25 | 0 | 0.0 | 0.0 | 0.00 | 0.15 | 0.05 | 41 | 1016.5 |
| 20260508050503 | 25 | 0 | 0.0 | 0.0 | 0.00 | 0.15 | 0.05 | 42 | 1016.5 |
| 20260508050003 | 25 | 0 | 0.0 | 0.0 | 0.00 | 0.15 | 0.05 | 43 | 1016.3 |
| 20260508045503 | 26 | 0 | 0.0 | 0.0 | 0.00 | 0.15 | 0.05 | 41 | 1016.3 |
| 20260508045003 | 26 | 0 | 0.0 | 0.0 | 0.00 | 0.15 | 0.05 | 42 | 1016.5 |
| 20260508044503 | 26 | 0 | 0.0 | 0.0 | 0.00 | 0.15 | 0.05 | 41 | 1016.3 |
| 20260508044004 | 26 | 0 | 0.0 | 0.0 | 0.00 | 0.15 | 0.05 | 41 | 1016.4 |
| 20260508043504 | 26 | 0 | 0.0 | 0.0 | 0.00 | 0.15 | 0.05 | 42 | 1016.3 |
| 20260508043004 | 26 | 0 | 0.0 | 0.0 | 0.00 | 0.15 | 0.05 | 42 | 1016.4 |
| 20260508042503 | 25 | 0 | 0.0 | 0.0 | 0.00 | 0.15 | 0.05 | 42 | 1016.3 |
| 20260508042003 | 26 | 0 | 0.0 | 0.0 | 0.00 | 0.15 | 0.05 | 42 | 1016.4 |
| 20260508041504 | 26 | 0 | 0.0 | 0.0 | 0.00 | 0.15 | 0.05 | 41 | 1016.5 |
| 20260508041003 | 26 | 0 | 0.0 | 0.0 | 0.00 | 0.15 | 0.05 | 43 | 1016.7 |
| 20260508040503 | 26 | 0 | 0.0 | 0.0 | 0.00 | 0.15 | 0.05 | 40 | 1016.7 |
| 20260508040003 | 25 | 0 | 0.0 | 0.0 | 0.00 | 0.15 | 0.05 | 42 | 1016.6 |
| 20260508035524 | 26 | 0 | 0.0 | 0.0 | 0.00 | 0.15 | 0.05 | 42 | 1016.7 |
| 20260508035004 | 26 | 0 | 0.0 | 0.0 | 0.00 | 0.15 | 0.05 | 42 | 1016.8 |
| 20260508034504 | 26 | 0 | 0.0 | 0.0 | 0.00 | 0.15 | 0.05 | 42 | 1016.8 |
| 20260508034003 | 26 | 0 | 0.0 | 0.0 | 0.00 | 0.15 | 0.05 | 46 | 1017.2 |
| 20260508033503 | 26 | 0 | 0.0 | 0.0 | 0.00 | 0.15 | 0.05 | 42 | 1016.9 |
| 20260508033004 | 26 | 0 | 0.0 | 0.0 | 0.00 | 0.15 | 0.05 | 42 | 1017.1 |
| 20260508032503 | 26 | 0 | 0.0 | 0.0 | 0.00 | 0.15 | 0.05 | 44 | 1017.4 |
| 20260508032003 | 26 | 0 | 0.0 | 0.0 | 0.00 | 0.15 | 0.05 | 46 | 1017.0 |
| 20260508031503 | 26 | 0 | 0.0 | 0.0 | 0.00 | 0.15 | 0.05 | 49 | 1017.2 |
| 20260508031003 | 26 | 0 | 0.0 | 0.0 | 0.00 | 0.15 | 0.05 | 47 | 1017.2 |
| 20260508030503 | 26 | 0 | 0.0 | 0.0 | 0.00 | 0.15 | 0.05 | 46 | 1017.4 |
| 20260508030024 | 26 | 0 | 0.0 | 0.0 | 0.00 | 0.15 | 0.05 | 48 | 1017.5 |
| 20260508025503 | 26 | 0 | 0.0 | 0.0 | 0.00 | 0.15 | 0.05 | 47 | 1017.3 |
| 20260508025003 | 26 | 0 | 0.0 | 0.0 | 0.00 | 0.15 | 0.05 | 48 | 1017.5 |
| 20260508024503 | 27 | 0 | 0.0 | 0.0 | 0.00 | 0.15 | 0.05 | 50 | 1017.9 |
| 20260508024004 | 26 | 0 | 0.0 | 0.0 | 0.00 | 0.15 | 0.05 | 47 | 1017.8 |
| 20260508023504 | 25 | 0 | 0.0 | 0.0 | 0.00 | 0.15 | 0.05 | 47 | 1017.8 |
| 20260508023004 | 26 | 0 | 0.0 | 0.0 | 0.00 | 0.15 | 0.05 | 48 | 1018.0 |
| 20260508022503 | 26 | 0 | 0.0 | 0.0 | 0.00 | 0.15 | 0.05 | 49 | 1018.0 |
| 20260508022003 | 26 | 0 | 0.0 | 0.0 | 0.00 | 0.15 | 0.05 | 48 | 1018.0 |
| 20260508021503 | 26 | 0 | 0.0 | 0.0 | 0.00 | 0.15 | 0.05 | 47 | 1018.2 |
| 20260508021003 | 25 | 0 | 0.0 | 0.0 | 0.00 | 0.15 | 0.05 | 47 | 1018.2 |
| 20260508020501 | 26 | 0 | 0.0 | 0.0 | 0.00 | 0.15 | 0.05 | 48 | 1018.3 |
| 20260508020001 | 25 | 0 | 0.0 | 0.0 | 0.00 | 0.15 | 0.05 | 48 | 1018.4 |
| 20260508015501 | 25 | 0 | 0.0 | 0.0 | 0.00 | 0.15 | 0.05 | 49 | 1018.3 |
| 20260508015001 | 25 | 0 | 0.0 | 0.0 | 0.00 | 0.15 | 0.05 | 48 | 1018.6 |
| 20260508014501 | 25 | 0 | 0.0 | 0.0 | 0.00 | 0.15 | 0.05 | 47 | 1018.7 |
| 20260508014022 | 25 | 0 | 0.0 | 0.0 | 0.00 | 0.15 | 0.05 | 48 | 1018.7 |
| 20260508013522 | 25 | 0 | 0.0 | 0.0 | 0.00 | 0.15 | 0.05 | 48 | 1018.7 |
| 20260508013001 | 25 | 0 | 0.0 | 0.0 | 0.00 | 0.15 | 0.05 | 46 | 1018.8 |
| 20260508012501 | 25 | 0 | 0.0 | 0.0 | 0.00 | 0.15 | 0.05 | 49 | 1018.8 |
| 20260508012001 | 25 | 0 | 0.0 | 0.0 | 0.00 | 0.15 | 0.05 | 47 | 1019.0 |
| 20260508011501 | 25 | 0 | 0.0 | 0.0 | 0.00 | 0.15 | 0.05 | 49 | 1019.1 |
| 20260508011001 | 24 | 0 | 0.0 | 0.0 | 0.00 | 0.15 | 0.05 | 48 | 1019.3 |
| 20260508010501 | 25 | 0 | 0.0 | 0.0 | 0.00 | 0.15 | 0.05 | 48 | 1019.4 |
| 20260508010001 | 24 | 0 | 0.0 | 0.0 | 0.00 | 0.15 | 0.05 | 49 | 1019.3 |
| 20260508005501 | 24 | 0 | 0.0 | 0.0 | 0.00 | 0.15 | 0.05 | 49 | 1019.4 |
| 20260508005001 | 25 | 0 | 0.0 | 0.0 | 0.00 | 0.15 | 0.05 | 50 | 1019.6 |
| 20260508004501 | 24 | 0 | 0.0 | 0.0 | 0.00 | 0.15 | 0.05 | 51 | 1019.6 |
| 20260508004023 | 24 | 0 | 0.0 | 0.0 | 0.00 | 0.15 | 0.05 | 49 | 1019.6 |
| 20260508003502 | 23 | 0 | 0.0 | 0.0 | 0.00 | 0.15 | 0.05 | 51 | 1019.6 |
| 20260508003002 | 23 | 0 | 0.0 | 0.0 | 0.00 | 0.15 | 0.05 | 51 | 1019.7 |
| 20260508002501 | 23 | 0 | 0.0 | 0.0 | 0.00 | 0.15 | 0.05 | 53 | 1019.8 |
| 20260508002001 | 23 | 0 | 0.0 | 0.0 | 0.00 | 0.15 | 0.05 | 55 | 1019.8 |
| 20260508001501 | 23 | 0 | 0.0 | 0.0 | 0.00 | 0.15 | 0.05 | 52 | 1019.7 |
| 20260508001001 | 23 | 0 | 0.0 | 0.0 | 0.00 | 0.15 | 0.05 | 51 | 1019.9 |
| 20260508000501 | 23 | 0 | 0.0 | 0.0 | 0.00 | 0.15 | 0.05 | 52 | 1019.8 |
| 20260508000001 | 22 | 0 | 0.0 | 0.0 | 0.00 | 0.15 | 0.05 | 53 | 1019.9 |
| 20260507235501 | 23 | 0 | 0.0 | 0.0 | 0.00 | 0.15 | 0.05 | 52 | 1020.0 |
| 20260507235001 | 22 | 0 | 0.0 | 0.0 | 0.00 | 0.15 | 0.05 | 55 | 1019.7 |
| 20260507234501 | 23 | 0 | 0.0 | 0.0 | 0.00 | 0.15 | 0.05 | 52 | 1020.0 |
| 20260507234001 | 23 | 0 | 0.0 | 0.0 | 0.00 | 0.15 | 0.05 | 53 | 1019.7 |
| 20260507233501 | 22 | 0 | 0.0 | 0.0 | 0.00 | 0.15 | 0.05 | 54 | 1019.9 |
| 20260507233002 | 22 | 0 | 0.0 | 0.0 | 0.00 | 0.15 | 0.05 | 55 | 1019.9 |
| 20260507232522 | 22 | 0 | 0.0 | 0.0 | 0.00 | 0.15 | 0.05 | 56 | 1020.0 |
| 20260507232001 | 21 | 0 | 0.0 | 0.0 | 0.00 | 0.15 | 0.05 | 56 | 1020.2 |
| 20260507231522 | 22 | 0 | 0.0 | 0.0 | 0.00 | 0.15 | 0.05 | 56 | 1020.0 |
| 20260507231001 | 21 | 0 | 0.0 | 0.0 | 0.00 | 0.15 | 0.05 | 57 | 1019.7 |
| 20260507230501 | 21 | 0 | 0.0 | 0.0 | 0.00 | 0.15 | 0.05 | 57 | 1020.1 |
| 20260507230001 | 21 | 0 | 0.0 | 0.0 | 0.00 | 0.15 | 0.05 | 58 | 1020.0 |
| 20260507225501 | 21 | 0 | 0.0 | 0.0 | 0.00 | 0.15 | 0.05 | 60 | 1020.1 |
| 20260507225001 | 21 | 0 | 0.0 | 0.0 | 0.00 | 0.15 | 0.05 | 60 | 1020.0 |
| 20260507224501 | 20 | 0 | 0.0 | 0.0 | 0.00 | 0.15 | 0.05 | 61 | 1019.9 |
| 20260507224002 | 20 | 0 | 0.0 | 0.0 | 0.00 | 0.15 | 0.05 | 59 | 1020.1 |
| 20260507223522 | 20 | 0 | 0.0 | 0.0 | 0.00 | 0.15 | 0.05 | 58 | 1020.2 |
| 20260507223002 | 20 | 0 | 0.0 | 0.0 | 0.00 | 0.15 | 0.05 | 60 | 1020.0 |
| 20260507222501 | 20 | 0 | 0.0 | 0.0 | 0.00 | 0.15 | 0.05 | 61 | 1020.1 |
| 20260507222001 | 20 | 0 | 0.0 | 0.0 | 0.00 | 0.15 | 0.05 | 63 | 1020.1 |
| 20260507221522 | 20 | 0 | 0.0 | 0.0 | 0.00 | 0.15 | 0.05 | 61 | 1019.9 |
| 20260507221022 | 19 | 0 | 0.0 | 0.0 | 0.00 | 0.15 | 0.05 | 60 | 1019.7 |
| 20260507220501 | 19 | 0 | 0.0 | 0.0 | 0.00 | 0.15 | 0.05 | 63 | 1019.7 |
| 20260507220001 | 19 | 0 | 0.0 | 0.0 | 0.00 | 0.15 | 0.05 | 64 | 1019.7 |
| 20260507215522 | 19 | 0 | 0.0 | 0.0 | 0.00 | 0.15 | 0.05 | 62 | 1019.6 |
| 20260507215001 | 19 | 0 | 0.0 | 0.0 | 0.00 | 0.15 | 0.05 | 65 | 1019.7 |
| 20260507214523 | 18 | 0 | 0.0 | 0.0 | 0.00 | 0.15 | 0.05 | 66 | 1019.7 |